Location: Avon School (historical)
(37.7514°N, 90.2201°W)
Time: 02:04:09
(UTC+00:00)

Explorer 7 - Pass Details

Date: 20 December 2025
Orbit: 433 x 550 km, 50.2° (Epoch: 13 January)

Event Time Altitude Azimuth Distance (km) Brightness Sun altitude
Rises 23:51:47 0° 311° (NW) 2,461 10.6 -12.8°
Reaches altitude 10° 23:55:11 10° 345° (NNW) 1,565 9.1 -13.4°
Maximum altitude 23:56:31 12° 8° (N) 1,456 8.7 -13.7°
Enters shadow 23:57:00 11° 16° (NNE) 1,467 8.7 -13.8°
